English version Home page |
Updated on September 25, 2005 |
プロフィール
|
軌道要素Epoch 2003 Aug. 29.0 TT = JDT 2452880.5 T 2003 Aug. 9.03043 TT MPC q 6.0138677 (2000.0) P Q z +0.0001964 Peri. 16.60585 +0.47765686 +0.74391711 +/-0.0000754 Node 284.18976 -0.85087992 +0.25927184 e 0.9988190 Incl. 28.82100 -0.21874023 +0.61592649
|
星図
|
光度変化m1 = 7.2 + 5 logΔ + 10.0 log r
|
軌道要素はM.P.E.C. 2004-U11に掲載されたものです。
|